(494350) = 2013 AR2 = 2016 TD70

Discovered at Kitt Peak on 1998-12-28 by Spacewatch.

Orbit

Orbit type: Main Belt

Note: WebGL enabled browser required.

epoch2023-02-25.0
epoch JD2460000.5
perihelion date2022-07-16.27842
perihelion JD2459776.77842
argument of perihelion (°)183.32711
ascending node (°)287.28912
inclination (°)3.98838
eccentricity0.0802259
perihelion distance (AU)2.5899335
Tisserand w.r.t. Jupiter3.3
ΔV w.r.t. Earth (km/sec)10.1
semimajor axis (AU)2.8158366
mean anomaly (°)46.66600
mean daily motion (°/day)0.20858960
aphelion distance (AU)3.042
period (years)4.73
P-vector [x]-0.35197253
P-vector [y]0.86037039
P-vector [z]0.36861650
Q-vector [x]-0.93365136
Q-vector [y]-0.29477197
Q-vector [z]-0.20348129
absolute magnitude16.66
phase slope0.15
uncertainty0
referenceMPO 745323
observations used317
oppositions16
arc length (days)8853
first opposition used1998
last opposition used2023
residual rms (arc-secs)0.75
perturbers coarse indicatorM-v
perturbers precise indicator003Ek
first observation date used1998-12-28.0
last observation date used2023-03-25.0
computer nameMPCLINUX
Minimum Orbit Intersection Distances (in AU)
for orbit epoch: 2460000.5, reference: E2023-G86
Mercury2.27137
Venus1.87177
Earth1.60611
Mars0.9593
Jupiter2.04553
Saturn6.45408
Uranus15.7469
Neptune27.0161

Observations

312 total observations over interval: 1998 12 28.43080 – 2023 03 25.344476
These data are available for download (format description).

Date (UT) J2000 RA J2000 Dec Magn Location Ref
1998 12 28.43080 08 49 44.03 +16 37 14.8 21.0 V 691 – Steward Observatory, Kitt Peak-Spacewatch MPS 747580
1998 12 28.45331 08 49 43.28 +16 37 15.0 20.8 V 691 – Steward Observatory, Kitt Peak-Spacewatch MPS 747580
1998 12 28.49085 08 49 41.99 +16 37 15.8 20.8 V 691 – Steward Observatory, Kitt Peak-Spacewatch MPS 747580
1999 01 08.32625 08 42 28.24 +16 45 23.0 20.4 V 691 – Steward Observatory, Kitt Peak-Spacewatch MPS 747580
1999 01 08.34821 08 42 27.18 +16 45 24.8 20.4 V 691 – Steward Observatory, Kitt Peak-Spacewatch MPS 747580
1999 01 08.37013 08 42 26.07 +16 45 26.1 20.3 V 691 – Steward Observatory, Kitt Peak-Spacewatch MPS 747580
2002 10 15.25041 02 48 27.19 +22 10 56.3 21.3   644 – Palomar Mountain/NEAT MPS 747580
2002 10 15.33600 02 48 23.46 +22 10 43.5 21.3   644 – Palomar Mountain/NEAT MPS 747580
2002 10 15.40064 02 48 20.58 +22 10 34.3 21.2   644 – Palomar Mountain/NEAT MPS 747580
2005 02 17.34475 16 40 30.28 -25 23 34.3 22.0 R 809 – European Southern Observatory, La Silla MPS 747580
2005 02 17.35089 16 40 30.67 -25 23 35.3 21.8 R 809 – European Southern Observatory, La Silla MPS 747580
2005 02 17.35708 16 40 31.11 -25 23 36.0 21.9 R 809 – European Southern Observatory, La Silla MPS 747580
2006 09 28.18014 21 55 00.12 -07 56 15.7 21.5 V G96 – Mt. Lemmon Survey MPS 747580
2006 09 28.18798 21 54 59.83 -07 56 17.6 21.6 V G96 – Mt. Lemmon Survey MPS 747580
2006 09 28.19572 21 54 59.72 -07 56 18.3 21.1 V G96 – Mt. Lemmon Survey MPS 747580
2006 09 28.20347 21 54 59.43 -07 56 19.7 21.1 V G96 – Mt. Lemmon Survey MPS 747580
2007 12 31.20161 04 19 39.82 +24 23 59.1 20.1 V G96 – Mt. Lemmon Survey MPS 747580
2007 12 31.20215 04 19 39.82 +24 23 59.1 20.0 V G96 – Mt. Lemmon Survey MPS 747580
2007 12 31.20928 04 19 39.54 +24 23 57.6 20.0 V G96 – Mt. Lemmon Survey MPS 747580
2007 12 31.20983 04 19 39.50 +24 23 57.7 20.2 V G96 – Mt. Lemmon Survey MPS 747580
2007 12 31.21698 04 19 39.25 +24 23 56.1 20.0 V G96 – Mt. Lemmon Survey MPS 747580
2007 12 31.21751 04 19 39.25 +24 23 56.1 20.0 V G96 – Mt. Lemmon Survey MPS 747580
2007 12 31.22512 04 19 38.96 +24 23 54.3 20.1 V G96 – Mt. Lemmon Survey MPS 747580
2008 02 08.18002 04 19 32.19 +23 05 27.9 21.3 V G96 – Mt. Lemmon Survey MPS 747580
2008 02 08.18662 04 19 32.41 +23 05 27.8 21.1 V G96 – Mt. Lemmon Survey MPS 747580
2008 02 08.19318 04 19 32.62 +23 05 27.5 21.0 V G96 – Mt. Lemmon Survey MPS 747580
2008 02 08.19972 04 19 32.84 +23 05 27.3 21.2 V G96 – Mt. Lemmon Survey MPS 747580
2009 01 01.51785 12 26 54.85 -06 59 51.2 21.6 V 691 – Steward Observatory, Kitt Peak-Spacewatch MPS 747580
2009 01 01.53069 12 26 55.40 -06 59 56.9 21.1 V 691 – Steward Observatory, Kitt Peak-Spacewatch MPS 747580
2009 01 01.54377 12 26 55.98 -07 00 01.7 21.3 V 691 – Steward Observatory, Kitt Peak-Spacewatch MPS 747580
2011 09 02.41954 23 58 57.417 +05 50 43.96 20.9 w F51 – Pan-STARRS 1, Haleakala MPS 747580
2011 09 02.42086 23 58 57.370 +05 50 43.85 21.1 w F51 – Pan-STARRS 1, Haleakala MPS 747580
2011 09 02.43380 23 58 56.818 +05 50 41.16 21.5 w F51 – Pan-STARRS 1, Haleakala MPS 747580
2011 09 02.43511 23 58 56.751 +05 50 41.42 21.3 w F51 – Pan-STARRS 1, Haleakala MPS 747580
2011 09 02.46245 23 58 55.589 +05 50 36.56 21.3 w F51 – Pan-STARRS 1, Haleakala MPS 747580
2011 09 02.46379 23 58 55.533 +05 50 36.02 21.2 w F51 – Pan-STARRS 1, Haleakala MPS 747580
2011 09 19.36087 23 46 01.45 +04 44 47.4 20.1 V G96 – Mt. Lemmon Survey MPS 747580
2011 09 19.36892 23 46 01.02 +04 44 45.2 20.4 V G96 – Mt. Lemmon Survey MPS 747580
2011 09 19.37718 23 46 00.58 +04 44 42.6 20.1 V G96 – Mt. Lemmon Survey MPS 747580
2011 09 19.38540 23 46 00.30 +04 44 41.1 19.5 V G96 – Mt. Lemmon Survey MPS 747580
2012 11 12.46613 07 32 38.40 +23 10 14.3 20.9 V G96 – Mt. Lemmon Survey MPS 747580
2012 11 12.47307 07 32 38.47 +23 10 13.6 21.4 V G96 – Mt. Lemmon Survey MPS 747580
2012 11 12.48006 07 32 38.58 +23 10 13.3 21.4 V G96 – Mt. Lemmon Survey MPS 747580
2012 11 12.48708 07 32 38.65 +23 10 12.6 21.4 V G96 – Mt. Lemmon Survey MPS 747580
2012 11 26.47076 07 32 49.34 +22 56 51.5 21.0 V G96 – Mt. Lemmon Survey MPS 747580
2012 11 26.47844 07 32 49.23 +22 56 50.8 21.1 V G96 – Mt. Lemmon Survey MPS 747580
2012 11 26.48603 07 32 49.12 +22 56 50.4 20.6 V G96 – Mt. Lemmon Survey MPS 747580
2012 11 26.49375 07 32 48.98 +22 56 50.3 20.9 V G96 – Mt. Lemmon Survey MPS 747580
2012 12 21.38605 07 19 03.28 +22 52 36.6 20.3 V G96 – Mt. Lemmon Survey MPS 461709
2012 12 21.39135 07 19 03.00 +22 52 36.9 20.3 V G96 – Mt. Lemmon Survey MPS 461709
2012 12 21.39664 07 19 02.74 +22 52 36.8 20.3 V G96 – Mt. Lemmon Survey MPS 461709
2012 12 21.40222 07 19 02.42 +22 52 36.7 20.2 V G96 – Mt. Lemmon Survey MPS 461709
2013 01 03.27038 07 06 54.75 +22 53 06.7 19.8 V G96 – Mt. Lemmon Survey MPS 448858
2013 01 03.27619 07 06 54.39 +22 53 06.8 19.9 V G96 – Mt. Lemmon Survey MPS 448858
2013 01 03.28198 07 06 54.00 +22 53 06.8 19.8 V G96 – Mt. Lemmon Survey MPS 448858
2013 01 03.28779 07 06 53.64 +22 53 06.6 19.8 V G96 – Mt. Lemmon Survey MPS 448858
2013 01 03.29369 07 06 53.28 +22 53 06.7 19.8 V G96 – Mt. Lemmon Survey MPS 448858
2013 01 04.25880 07 05 55.64 +22 53 02.4 19.6 V G96 – Mt. Lemmon Survey MPS 448858
2013 01 04.27610 07 05 54.56 +22 53 02.4 19.6 V G96 – Mt. Lemmon Survey MPS 448858
2013 01 04.28187 07 05 54.20 +22 53 02.5 19.8 V G96 – Mt. Lemmon Survey MPS 448858
2014 04 05.47521 14 09 04.611 -19 16 08.37 20.6 w F51 – Pan-STARRS 1, Haleakala MPS 747580
2014 04 05.48710 14 09 04.057 -19 16 06.31 20.9 w F51 – Pan-STARRS 1, Haleakala MPS 747580
2014 04 05.49899 14 09 03.518 -19 16 04.03 20.8 w F51 – Pan-STARRS 1, Haleakala MPS 747580
2014 04 05.51090 14 09 02.951 -19 16 01.87 20.8 w F51 – Pan-STARRS 1, Haleakala MPS 747580
2014 04 23.09934 13 54 39.96 -18 04 10.1 20.4 V W84 – Cerro Tololo-DECam MPS 785730
2014 04 23.10258 13 54 39.79 -18 04 09.1   W84 – Cerro Tololo-DECam MPS 785730
2014 04 23.10908 13 54 39.44 -18 04 07.2   W84 – Cerro Tololo-DECam MPS 785730
2014 04 23.11233 13 54 39.27 -18 04 06.3   W84 – Cerro Tololo-DECam MPS 785730
2014 04 25.11863 13 52 57.45 -17 54 10.8 20.4 V W84 – Cerro Tololo-DECam MPS 785730
2014 04 25.12187 13 52 57.28 -17 54 09.9   W84 – Cerro Tololo-DECam MPS 785730
2014 04 25.12514 13 52 57.11 -17 54 08.9   W84 – Cerro Tololo-DECam MPS 785730
2014 04 25.12838 13 52 56.94 -17 54 07.9   W84 – Cerro Tololo-DECam MPS 785730
2014 04 25.13162 13 52 56.77 -17 54 07.0   W84 – Cerro Tololo-DECam MPS 785730
2014 04 27.02145 13 51 21.92 -17 44 34.0 20.4 V W84 – Cerro Tololo-DECam MPS 785730
2014 04 27.02463 13 51 21.76 -17 44 33.0   W84 – Cerro Tololo-DECam MPS 785730
2014 04 27.02782 13 51 21.60 -17 44 32.0   W84 – Cerro Tololo-DECam MPS 785730
2014 04 27.03099 13 51 21.43 -17 44 31.0   W84 – Cerro Tololo-DECam MPS 785730
2014 05 20.33192 13 35 18.449 -15 47 21.16 21.1 w F51 – Pan-STARRS 1, Haleakala MPS 747580
2014 05 20.34488 13 35 18.050 -15 47 17.63 21.1 w F51 – Pan-STARRS 1, Haleakala MPS 747580
2014 05 20.35782 13 35 17.649 -15 47 14.24 20.9 w F51 – Pan-STARRS 1, Haleakala MPS 747580
2014 05 20.37073 13 35 17.254 -15 47 10.50 21.0 w F51 – Pan-STARRS 1, Haleakala MPS 747580
2014 05 28.29317 13 32 07.533 -15 14 40.93 21.2 w F51 – Pan-STARRS 1, Haleakala MPS 747580
2014 05 28.30530 13 32 07.304 -15 14 38.38 21.1 w F51 – Pan-STARRS 1, Haleakala MPS 747580
2014 05 28.31740 13 32 07.039 -15 14 35.76 21.2 w F51 – Pan-STARRS 1, Haleakala MPS 747580
2015 06 13.52810 20 20 55.898 -19 12 42.16 21.4 w F51 – Pan-STARRS 1, Haleakala MPS 747580
2015 06 13.53944 20 20 55.607 -19 12 42.28 21.4 w F51 – Pan-STARRS 1, Haleakala MPS 747580
2015 06 13.55075 20 20 55.327 -19 12 42.24 21.2 w F51 – Pan-STARRS 1, Haleakala MPS 747580
2015 06 13.56204 20 20 55.054 -19 12 42.45 21.4 w F51 – Pan-STARRS 1, Haleakala MPS 747580
2015 06 20.49457 20 17 39.421 -19 15 29.58 21.2 w F51 – Pan-STARRS 1, Haleakala MPS 747580
2015 06 20.50592 20 17 39.047 -19 15 29.89 21.7 w F51 – Pan-STARRS 1, Haleakala MPS 747580
2015 06 20.51723 20 17 38.672 -19 15 30.64 21.3 w F51 – Pan-STARRS 1, Haleakala MPS 747580
2015 06 20.52857 20 17 38.280 -19 15 31.26 21.2 w F51 – Pan-STARRS 1, Haleakala MPS 747580
2015 06 28.56408 20 12 36.869 -19 22 03.46 21.0 w F51 – Pan-STARRS 1, Haleakala MPS 747580
2015 06 28.57509 20 12 36.411 -19 22 03.98 21.1 w F51 – Pan-STARRS 1, Haleakala MPS 747580
2015 06 28.58606 20 12 35.938 -19 22 04.64 20.9 w F51 – Pan-STARRS 1, Haleakala MPS 747580
2015 08 17.33975 19 32 32.135 -20 17 42.12 21.0 w F51 – Pan-STARRS 1, Haleakala MPS 747580
